Regional Weather Roundup
Issued by NWS

Home | Current Version | Previous Version | Graphics & Text | Print | Product List | Glossary On
Versions: 1 2 3 4 5 6 7 8 9 10 11 12 13 14 15 16 17 18 19 20 21 22 23 24 25 26 27 28 29 30 31 32 33 34 35 36 37 38 39 40 41 42 43 44 45 46 47 48 49 50
000
ASUS43 KFSD 261810
RWRSD

WEATHER ROUNDUP FOR SOUTH DAKOTA
NATIONAL WEATHER SERVICE SIOUX FALLS SD
1200 PM CST THU FEB 26 2015

NOTE: "FAIR" INDICATES FEW OR NO CLOUDS BELOW 12,000 FEET WITH NO
SIGNIFICANT WEATHER AND/OR OBSTRUCTIONS TO VISIBILITY.


SDZ001>005-009-010-012>017-261900-
NORTHWEST AND NORTH CENTRAL SOUTH DAKOTA

CITY           SKY/WX    TMP DP  RH WIND       PRES   REMARKS
BUFFALO          N/A      3  -7  63 NW9       30.39R WCI -12
FAITH            N/A      6  -5  60 N10G17    30.48S WCI  -9
MOBRIDGE       SUNNY      2  -8  63 NW10      30.54R WCI -14
$$

SDZ012>016-024>037-041>051-057-063-072>074-261900-
SOUTHWEST AND SOUTH CENTRAL SOUTH DAKOTA

CITY           SKY/WX    TMP DP  RH WIND       PRES   REMARKS
RAPID CTY ARPT SUNNY      3  -3  76 N16       30.42S WCI -16
PIERRE         MOSUNNY    6  -5  60 N13G22    30.55S WCI -10
CUSTER         SUNNY      9 -13  36 E5        30.14S WCI   1
ELLSWORTH AFB  MOSUNNY    5  -3  72 N13       30.41F WCI -12
PHILIP         MOSUNNY    8  -3  61 N8        30.52S WCI  -4
PINE RIDGE     PTSUNNY    9   0  67 N12G18    30.40S WCI  -6
WINNER         CLOUDY     7  -5  57 N13       30.52S BLWGSNOWWCI  -9
$$

SDZ004>011-016>023-039-040-261900-
NORTHEAST SOUTH DAKOTA

CITY           SKY/WX    TMP DP  RH WIND       PRES   REMARKS
ABERDEEN       SUNNY      1 -10  60 N16       30.58S WCI -19
WATERTOWN      MOSUNNY    0  -9  65 NW17      30.47S WCI -21
SISSETON         N/A      0  -8  69 N15       30.55R WCI -19
$$

SDZ017-020-022-023-036>040-048>070-261900-
SOUTHEAST SOUTH DAKOTA

CITY           SKY/WX    TMP DP  RH WIND       PRES   REMARKS
SIOUX FALLS    MOSUNNY    2  -7  66 N18       30.51R WCI -19
HURON          SUNNY      1  -8  66 NW12      30.57S WCI -16
CHAMBERLAIN    MOSUNNY    7  -6  56 N15G24    30.53F WCI -10
MITCHELL       SUNNY      5  -5  63 N17       30.57S WCI -14
YANKTON        MOSUNNY    7  -2  66 N16       30.56R WCI -11
$$

ABBREVIATIONS USED IN REMARKS
   TC - TEMPERATURE IN CELSIUS
  WCI - WIND CHILL INDEX
   HX - HEAT INDEX
  VSB - VISIBILITY




USA.gov is the U.S. government's official web portal to all federal, state and local government web resources and services.